SCP
0 0 0 0 0 0 0 0 0 0 0 0 0 0 0 0 0 0 0 0 0 0 0 0 0 0 0 0 0 0 0 0 0 0 0 0 0 0 0 0 0 0 0
0 0 0 0 0 0 0 0 0 0 0 0 0 0 0 0 0 0 0 0 0 0 0 0 0 0 0 0 0 0 0 0 0 0 0 0 0 0 0 0 0 0 0
0 0 0 0 0 0 0 0 0 0 0 0 0 0 0 0 0 0 0 0 0 0 0 0 0 0 0 0 0 0 0 0 0 0 0 0 0 0 0 0 0 0 0
0 0 0 0 0 0 0 0 0 0 0 0 0 0 0 0 0 0 0 0 0 0 0 0 0 0 0 0 0 0 0 0 0 0 0 0 0 0 0 0 0 0 0
0 0 0 0 0 0 0 0 0 0 0 0 0 0 0 0 0 0 0 0 0 0 0 0 0 0 0 0 0 0 0 0 0 0 0 0 0 0 0 0 0 0 0
0 0 0 0 0 0 0 0 0 0 0 0 0 0 0 0 0 0 0 0 0 0 0 0 0 0 0 0 0 0 0 0 0 0 0 0 0 0 0 0 0 0 0
0 0 0 0 0 0 0 0 0 0 0 0 0 0 0 0 0 0 0 0 0 0 0 0 0 0 0 0 0 0 0 0 0 0 0 0 0 0 0 0 0 0 0
0 0 0 0 0 0 0 0 0 0 0 0 0 0 0 0 0 0 0 0 0 0 0 0 0 0 0 0 0 0 0 0 0 0 0 0 0 0 0 0 0 0 0
0 0 0 0 0 0 0 0 0 0 0 0 0 0 0 0 0 0 0 0 0 0 0 0 0 0 0 0 0 0 0 0 0 0 0 0 0 0 0 0 0 0 0
0 0 0 0 0 0 0 0 0 0 0 0 0 0 0 0 0 0 0 0 0 0 0 0 0 0 0 0 0 0 0 0 0 0 0 0 0 0 0 0 0 0 0
0 0 0 0 0 0 0 0 0 0 0 0 0 0 0 0 0 0 0 0 0 0 0 0 0 0 0 0 0 0 0 0 0 0 0 0 0 0 0 0 0 0 0
0 0 0 0 0 0 0 0 0 0 0 0 0 0 0 0 0 0 0 0 0 0 0 0 0 0 0 0 0 0 0 0 0 0 0 0 0 0 0 0 0 0 0
-0 -0 0 0 0 0 0 0 0 0 0 0 0 0 0 0 0 0 0 0 0 0 0 0 0 0 0 0 0 0 0 0 0 0 0 0 0 0 0 0 0 0 0
0 0 0 0 0 0 0 0 0 0 0 0 0 0 0 0 0 0 0 0 0 0 0 0 0 0 0 0 0 0 0 0 0 0 0 0 0 0 0 0 0 0 0
0 0 0 0 0 0 0 0 0 0 0 0 0 0 0 0 0 0 0 0 0 0 0 0 0 0 0 0 0 0 0 0 0 0 0 0 0 0 0 0 0 0 0
0 0 0 0 0 0 0 0 0 0 0 0 0 0 0 0 0 0 0 0 0 0 0 0 0 0 0 0 0 0 0 0 0 0 0 0 0 0 0 0 0 0 0
0 0 0 0 0 0 0 0 0 0 0 0 0 0 0 0 0 0 0 0 0 0 0 0 0 0 0 0 0 0 0 0 0 0 0 0 0 0 0 0 0 0 0
0 0 0 0 0 0 0 0 0 0 0 0 0 0 0 0 0 0 0 0 0 0 0 0 0 0 0 0 0 0 0 0 0 0 0 0 0 0 0 0 0 0 0
0 0 0 0 0 0 0 0 0 0 0 0 0 0 0 0 0 0 0 0 0 0 0 0 0 0 0 0 0 0 0 0 0 0 0 0 0 0 0 0 0 0 0
0 0 0 0 0 0 0 0 0 0 0 0 0 0 0 0 0 0 0 0 0 0 0 0 0 0 0 0 0 0 0 0 0 0 0 0 0 0 0 0 0 0 0
0 0 0 0 0 0 0 0 0 0 0 0 0 0 0 0 0 0 0 0 0 0 0 0 0 0 0 0 0 0 0 0 0 0 0 0 0 0 0 0 0 0 0
0 0 0 0 -0 -0 -0 0 0 0 0 0 0 0 0 0 0 0 0 0 0 0 0 0 0 0 0 0 0 0 0 0 0 0 0 0 0 0 0 0 0 0 0
0 -0 -0 0 0 -0 -0 -0 0 0 0 0 0 0 0 0 0 0 0 0 0 0 0 0 0 0 0 0 0 0 0 0 0 0 0 0 0 0 0 0 0 0 0
0 0 0 0 0 0 0 0 0 0 0 0 0 0 0 0 0 0 0 0 0 0 0 0 0 0 0 0 0 0 0 0 0 0 0 0 0 0 0 0 0 0 0
0 0 0 0 0 0 0 0 0 0 0 0 0 0 0 0 0 0 0 0 0 0 0 0 0 0 0 0 0 0 0 0 0 0 0 0 0 0 0 0 0 0 0
0 0 0 0 0 0 0 0 0 0 0 0 0 0 0 0 0 0 0 0 0 0 0 0 0 0 0 0 0 0 0 0 0 0 0 0 0 0 0 0 0 0 0
Wind_Speed_500mb
40 45 57 59 64 61 56 51 49 49 49 50 53 57 65 69 74 71 63 53 48 44 47 46 50 51 52 50 56 53 55 55 51 50 54 52 49 49 48 40 43 40 43
56 46 49 58 60 59 58 54 49 46 50 53 57 63 68 65 59 55 52 50 48 46 46 48 49 52 50 50 55 55 57 56 56 56 53 45 53 46 30 31 36 34 21
71 70 64 66 67 65 60 53 46 47 53 54 58 63 58 57 54 50 45 45 46 45 43 44 49 49 47 47 52 56 51 57 51 50 46 18 12 19 33 35 26 19 13
84 85 84 81 74 62 56 50 48 54 54 57 54 52 51 49 48 46 44 42 40 37 38 45 46 40 40 44 45 44 51 57 44 49 43 36 34 19 8 9 11 5 3
64 61 64 69 74 59 52 48 49 53 50 46 47 46 44 40 39 37 39 40 37 35 37 43 45 46 43 45 44 41 40 40 42 46 45 34 34 27 20 13 12 9 17
53 56 46 47 63 57 51 50 49 45 43 43 39 37 34 32 30 33 36 37 37 36 41 45 35 34 42 34 31 29 33 34 38 37 38 36 37 30 21 16 23 16 14
39 41 46 48 56 54 50 46 40 39 38 35 35 34 31 30 30 32 33 33 35 38 41 31 31 31 36 36 40 38 38 37 34 30 28 28 30 29 26 24 22 16 17
37 34 40 45 48 47 44 40 37 36 34 34 33 32 30 28 30 33 31 35 37 38 38 40 39 42 43 41 38 34 32 32 33 35 35 31 30 28 24 22 19 13 12
40 32 38 43 43 42 39 36 35 35 35 34 32 31 30 30 32 36 40 43 44 45 44 45 43 39 35 30 25 24 24 25 25 26 26 26 25 22 19 16 12 9 11
36 36 38 41 42 40 37 38 38 36 35 35 32 32 32 32 34 35 38 38 39 38 37 35 31 28 27 25 25 25 25 25 25 24 22 21 19 17 13 10 6 4 4
34 38 41 42 41 42 44 43 42 39 39 37 36 35 35 36 35 35 35 34 33 32 32 30 30 30 31 31 30 29 28 28 27 27 25 24 20 18 15 11 6 2 2
27 36 45 46 49 50 50 49 47 44 43 42 41 40 40 41 41 40 38 36 34 34 33 33 33 33 33 32 31 30 30 29 29 28 27 26 24 19 12 9 7 7 11
18 27 35 46 53 54 55 54 53 52 52 51 46 45 46 46 46 43 41 40 38 38 37 37 36 35 35 35 35 34 33 34 33 30 28 27 24 22 19 12 7 9 16
51 50 54 58 58 60 64 65 63 64 62 58 55 53 52 49 48 48 48 47 45 44 42 41 39 38 36 34 34 35 36 35 35 34 33 31 27 21 15 10 7 11 16
64 72 74 74 75 78 77 78 77 75 71 69 66 62 57 55 57 58 57 54 51 48 46 44 41 39 39 38 37 38 39 40 39 37 34 28 24 20 15 11 10 13 18
80 81 82 82 86 87 89 92 90 88 85 82 78 71 66 65 66 66 64 60 57 54 50 47 45 43 43 44 46 45 44 44 41 37 33 29 25 20 15 11 12 17 22
75 79 79 83 85 86 85 90 89 93 93 92 87 79 74 72 72 70 67 63 61 56 53 51 49 47 47 48 51 52 47 42 39 36 32 27 21 16 14 12 14 19 24
78 84 86 89 93 92 88 85 87 91 92 95 95 88 83 80 77 73 70 67 65 62 58 56 53 50 49 49 53 52 49 44 39 35 32 27 24 20 17 15 16 20 22
61 64 70 76 80 80 77 76 77 80 87 92 94 96 93 89 83 79 76 72 67 63 60 56 53 50 46 45 54 52 47 44 40 37 32 28 24 21 19 18 17 21 23
35 42 51 58 61 64 65 64 68 73 81 84 88 94 95 89 82 77 74 70 67 63 61 59 56 51 47 44 53 52 47 44 40 36 32 30 27 23 18 19 19 21 22
51 64 66 64 65 67 66 63 63 70 67 72 79 84 87 84 79 76 74 70 68 65 63 60 57 53 50 49 48 49 44 41 39 36 32 28 26 26 22 23 22 21 22
68 61 61 66 66 64 62 63 66 65 65 65 68 74 78 81 79 72 72 71 71 68 66 64 59 56 50 47 44 45 46 38 35 34 32 29 27 27 24 24 25 23 24
71 70 63 59 58 62 61 63 68 67 65 62 61 67 68 74 72 71 72 74 73 73 73 67 66 63 59 54 50 40 36 35 33 32 30 28 27 24 23 25 26 26 28
63 69 68 63 61 60 63 62 62 64 60 60 59 61 63 71 69 67 68 73 76 77 75 73 70 67 63 59 51 42 34 32 31 28 27 26 24 23 24 27 28 29 29
69 69 69 63 57 55 55 56 57 54 54 54 55 59 65 68 65 63 66 68 69 70 72 71 66 66 64 59 49 39 36 33 29 27 26 26 26 26 27 29 30 30 30
68 67 65 64 59 55 54 51 50 49 49 53 55 60 64 64 63 61 61 62 57 57 53 50 48 46 43 41 37 37 35 30 23 23 26 28 28 28 28 29 30 30 30
Wind_Direction_500mb
255 261 241 246 239 239 243 243 250 263 268 264 262 267 272 277 280 280 276 271 263 257 259 260 269 269 270 272 270 270 270 272 277 277 281 284 283 284 283 280 279 275 277
257 251 239 231 233 235 242 246 253 263 270 267 271 274 279 281 280 275 269 260 250 249 248 248 257 261 263 266 271 269 269 271 269 268 271 276 288 301 294 298 281 274 275
252 252 245 241 241 242 242 244 252 266 270 270 274 276 279 279 279 273 265 256 248 249 250 256 259 268 265 271 270 266 266 269 270 269 272 265 245 267 295 293 270 301 288
253 254 255 249 245 238 235 241 254 264 263 268 270 277 278 276 275 271 266 261 252 250 250 259 256 262 278 277 272 273 269 266 267 269 268 264 267 278 227 235 263 272 333
263 261 271 253 242 235 234 241 254 262 265 268 275 276 276 276 272 264 256 250 249 255 260 262 261 264 260 264 262 267 269 262 260 265 260 259 255 243 230 229 266 217 278
269 268 261 245 230 229 234 244 250 258 265 273 273 276 279 276 264 252 241 241 251 261 265 264 273 257 271 277 253 263 271 267 266 267 255 255 241 255 244 249 242 248 249
280 262 245 231 226 229 234 243 252 259 267 267 271 275 276 270 262 252 250 251 253 260 259 255 264 251 256 260 268 264 264 264 264 262 250 244 247 248 255 260 248 238 211
287 254 237 228 224 229 237 243 253 263 263 266 269 271 270 266 255 249 255 258 258 254 256 260 262 265 267 265 262 258 254 247 242 242 243 239 239 246 247 241 236 222 200
270 258 234 227 227 231 240 250 263 265 267 267 265 266 268 264 257 251 252 252 253 257 259 261 261 259 256 251 244 239 236 233 231 228 226 225 225 228 233 237 231 203 162
267 252 236 231 234 239 249 261 259 260 257 256 258 262 262 261 259 255 252 251 251 251 251 248 245 241 240 238 236 235 232 228 225 221 219 221 222 224 219 210 195 170 149
287 263 250 246 247 252 260 262 256 251 249 252 256 258 259 259 256 252 248 245 241 239 235 232 231 232 233 234 234 232 228 222 216 211 207 203 197 194 192 202 225 286 9
289 276 265 258 257 260 264 262 261 254 251 251 253 255 255 255 253 250 246 241 237 235 235 235 237 238 237 235 233 230 226 221 212 204 198 194 187 187 196 218 253 310 336
328 306 274 266 266 268 267 267 264 260 254 252 252 251 249 248 248 245 242 241 240 240 241 241 240 239 236 231 226 224 219 212 206 198 191 192 190 194 203 216 258 311 330
296 287 287 285 277 272 269 268 266 263 256 254 254 252 249 247 247 245 243 242 241 242 240 239 238 236 233 229 226 222 218 211 202 198 196 197 199 201 208 224 268 308 326
273 274 277 278 281 281 278 272 269 266 260 256 255 254 250 246 245 243 241 241 241 240 238 236 234 231 228 227 225 220 214 210 206 202 202 203 209 213 224 241 271 301 312
272 277 281 280 278 275 278 279 273 267 260 256 255 251 247 245 243 243 242 240 238 236 232 231 231 231 229 228 221 217 214 211 210 212 209 210 217 226 237 255 278 296 304
278 280 280 282 281 280 281 280 279 272 261 256 254 251 247 244 241 240 238 237 235 232 231 230 229 227 226 226 223 221 216 215 214 215 215 217 224 230 250 267 284 292 299
281 283 283 285 286 288 286 283 278 275 268 258 254 250 247 244 241 239 237 235 233 232 230 228 226 224 224 224 220 219 218 219 220 222 224 223 228 235 249 260 274 283 294
290 289 286 285 287 289 291 288 281 275 268 261 256 251 247 243 239 237 235 232 231 229 227 226 225 222 223 226 220 217 215 217 219 220 221 226 235 244 247 258 274 286 294
299 302 302 300 299 298 293 287 284 276 269 262 256 249 243 240 239 238 235 233 230 228 225 221 219 221 220 226 222 217 218 218 219 220 223 229 239 252 251 261 267 276 287
312 314 309 304 305 306 305 299 288 279 276 266 258 252 245 242 241 238 235 232 229 224 221 219 218 219 225 221 215 214 218 219 223 225 229 234 245 258 261 270 280 286 291
311 310 306 305 305 302 298 295 290 284 274 267 261 254 244 238 236 236 236 230 226 223 221 216 217 219 216 219 224 216 218 220 224 229 230 235 246 257 267 280 291 294 295
305 307 307 304 306 307 300 292 288 283 277 269 264 252 242 237 237 235 233 231 227 224 219 219 213 214 217 217 219 221 217 221 224 228 231 240 248 255 274 282 285 291 293
304 305 303 301 299 298 297 294 285 280 275 266 256 245 236 234 232 233 232 232 228 224 222 215 217 217 214 214 220 217 218 226 227 230 234 239 250 262 272 279 284 289 294
299 298 299 299 297 296 293 289 285 277 268 259 249 239 232 231 231 229 230 229 229 230 231 228 224 214 214 218 220 221 221 226 228 235 238 245 252 262 269 274 279 286 294
297 296 298 297 295 291 289 286 279 268 259 250 241 235 233 228 226 226 225 228 230 231 227 233 231 224 222 218 216 222 227 228 224 229 240 249 256 261 264 270 279 287 294
Wind_Speed_850mb
40 45 57 59 64 61 56 51 49 49 49 50 53 57 65 69 74 71 63 53 48 44 47 46 50 51 52 50 56 53 55 55 51 50 54 52 49 49 48 40 43 40 43
56 46 49 58 60 59 58 54 49 46 50 53 57 63 68 65 59 55 52 50 48 46 46 48 49 52 50 50 55 55 57 56 56 56 53 45 53 46 30 31 36 34 21
71 70 64 66 67 65 60 53 46 47 53 54 58 63 58 57 54 50 45 45 46 45 43 44 49 49 47 47 52 56 51 57 51 50 46 18 12 19 33 35 26 19 13
84 85 84 81 74 62 56 50 48 54 54 57 54 52 51 49 48 46 44 42 40 37 38 45 46 40 40 44 45 44 51 57 44 49 43 36 34 19 8 9 11 5 3
64 61 64 69 74 59 52 48 49 53 50 46 47 46 44 40 39 37 39 40 37 35 37 43 45 46 43 45 44 41 40 40 42 46 45 34 34 27 20 13 12 9 17
53 56 46 47 63 57 51 50 49 45 43 43 39 37 34 32 30 33 36 37 37 36 41 45 35 34 42 34 31 29 33 34 38 37 38 36 37 30 21 16 23 16 14
39 41 46 48 56 54 50 46 40 39 38 35 35 34 31 30 30 32 33 33 35 38 41 31 31 31 36 36 40 38 38 37 34 30 28 28 30 29 26 24 22 16 17
37 34 40 45 48 47 44 40 37 36 34 34 33 32 30 28 30 33 31 35 37 38 38 40 39 42 43 41 38 34 32 32 33 35 35 31 30 28 24 22 19 13 12
40 32 38 43 43 42 39 36 35 35 35 34 32 31 30 30 32 36 40 43 44 45 44 45 43 39 35 30 25 24 24 25 25 26 26 26 25 22 19 16 12 9 11
36 36 38 41 42 40 37 38 38 36 35 35 32 32 32 32 34 35 38 38 39 38 37 35 31 28 27 25 25 25 25 25 25 24 22 21 19 17 13 10 6 4 4
34 38 41 42 41 42 44 43 42 39 39 37 36 35 35 36 35 35 35 34 33 32 32 30 30 30 31 31 30 29 28 28 27 27 25 24 20 18 15 11 6 2 2
27 36 45 46 49 50 50 49 47 44 43 42 41 40 40 41 41 40 38 36 34 34 33 33 33 33 33 32 31 30 30 29 29 28 27 26 24 19 12 9 7 7 11
18 27 35 46 53 54 55 54 53 52 52 51 46 45 46 46 46 43 41 40 38 38 37 37 36 35 35 35 35 34 33 34 33 30 28 27 24 22 19 12 7 9 16
51 50 54 58 58 60 64 65 63 64 62 58 55 53 52 49 48 48 48 47 45 44 42 41 39 38 36 34 34 35 36 35 35 34 33 31 27 21 15 10 7 11 16
64 72 74 74 75 78 77 78 77 75 71 69 66 62 57 55 57 58 57 54 51 48 46 44 41 39 39 38 37 38 39 40 39 37 34 28 24 20 15 11 10 13 18
80 81 82 82 86 87 89 92 90 88 85 82 78 71 66 65 66 66 64 60 57 54 50 47 45 43 43 44 46 45 44 44 41 37 33 29 25 20 15 11 12 17 22
75 79 79 83 85 86 85 90 89 93 93 92 87 79 74 72 72 70 67 63 61 56 53 51 49 47 47 48 51 52 47 42 39 36 32 27 21 16 14 12 14 19 24
78 84 86 89 93 92 88 85 87 91 92 95 95 88 83 80 77 73 70 67 65 62 58 56 53 50 49 49 53 52 49 44 39 35 32 27 24 20 17 15 16 20 22
61 64 70 76 80 80 77 76 77 80 87 92 94 96 93 89 83 79 76 72 67 63 60 56 53 50 46 45 54 52 47 44 40 37 32 28 24 21 19 18 17 21 23
35 42 51 58 61 64 65 64 68 73 81 84 88 94 95 89 82 77 74 70 67 63 61 59 56 51 47 44 53 52 47 44 40 36 32 30 27 23 18 19 19 21 22
51 64 66 64 65 67 66 63 63 70 67 72 79 84 87 84 79 76 74 70 68 65 63 60 57 53 50 49 48 49 44 41 39 36 32 28 26 26 22 23 22 21 22
68 61 61 66 66 64 62 63 66 65 65 65 68 74 78 81 79 72 72 71 71 68 66 64 59 56 50 47 44 45 46 38 35 34 32 29 27 27 24 24 25 23 24
71 70 63 59 58 62 61 63 68 67 65 62 61 67 68 74 72 71 72 74 73 73 73 67 66 63 59 54 50 40 36 35 33 32 30 28 27 24 23 25 26 26 28
63 69 68 63 61 60 63 62 62 64 60 60 59 61 63 71 69 67 68 73 76 77 75 73 70 67 63 59 51 42 34 32 31 28 27 26 24 23 24 27 28 29 29
69 69 69 63 57 55 55 56 57 54 54 54 55 59 65 68 65 63 66 68 69 70 72 71 66 66 64 59 49 39 36 33 29 27 26 26 26 26 27 29 30 30 30
68 67 65 64 59 55 54 51 50 49 49 53 55 60 64 64 63 61 61 62 57 57 53 50 48 46 43 41 37 37 35 30 23 23 26 28 28 28 28 29 30 30 30
Wind_Direction_850mb
255 261 241 246 239 239 243 243 250 263 268 264 262 267 272 277 280 280 276 271 263 257 259 260 269 269 270 272 270 270 270 272 277 277 281 284 283 284 283 280 279 275 277
257 251 239 231 233 235 242 246 253 263 270 267 271 274 279 281 280 275 269 260 250 249 248 248 257 261 263 266 271 269 269 271 269 268 271 276 288 301 294 298 281 274 275
252 252 245 241 241 242 242 244 252 266 270 270 274 276 279 279 279 273 265 256 248 249 250 256 259 268 265 271 270 266 266 269 270 269 272 265 245 267 295 293 270 301 288
253 254 255 249 245 238 235 241 254 264 263 268 270 277 278 276 275 271 266 261 252 250 250 259 256 262 278 277 272 273 269 266 267 269 268 264 267 278 227 235 263 272 333
263 261 271 253 242 235 234 241 254 262 265 268 275 276 276 276 272 264 256 250 249 255 260 262 261 264 260 264 262 267 269 262 260 265 260 259 255 243 230 229 266 217 278
269 268 261 245 230 229 234 244 250 258 265 273 273 276 279 276 264 252 241 241 251 261 265 264 273 257 271 277 253 263 271 267 266 267 255 255 241 255 244 249 242 248 249
280 262 245 231 226 229 234 243 252 259 267 267 271 275 276 270 262 252 250 251 253 260 259 255 264 251 256 260 268 264 264 264 264 262 250 244 247 248 255 260 248 238 211
287 254 237 228 224 229 237 243 253 263 263 266 269 271 270 266 255 249 255 258 258 254 256 260 262 265 267 265 262 258 254 247 242 242 243 239 239 246 247 241 236 222 200
270 258 234 227 227 231 240 250 263 265 267 267 265 266 268 264 257 251 252 252 253 257 259 261 261 259 256 251 244 239 236 233 231 228 226 225 225 228 233 237 231 203 162
267 252 236 231 234 239 249 261 259 260 257 256 258 262 262 261 259 255 252 251 251 251 251 248 245 241 240 238 236 235 232 228 225 221 219 221 222 224 219 210 195 170 149
287 263 250 246 247 252 260 262 256 251 249 252 256 258 259 259 256 252 248 245 241 239 235 232 231 232 233 234 234 232 228 222 216 211 207 203 197 194 192 202 225 286 9
289 276 265 258 257 260 264 262 261 254 251 251 253 255 255 255 253 250 246 241 237 235 235 235 237 238 237 235 233 230 226 221 212 204 198 194 187 187 196 218 253 310 336
328 306 274 266 266 268 267 267 264 260 254 252 252 251 249 248 248 245 242 241 240 240 241 241 240 239 236 231 226 224 219 212 206 198 191 192 190 194 203 216 258 311 330
296 287 287 285 277 272 269 268 266 263 256 254 254 252 249 247 247 245 243 242 241 242 240 239 238 236 233 229 226 222 218 211 202 198 196 197 199 201 208 224 268 308 326
273 274 277 278 281 281 278 272 269 266 260 256 255 254 250 246 245 243 241 241 241 240 238 236 234 231 228 227 225 220 214 210 206 202 202 203 209 213 224 241 271 301 312
272 277 281 280 278 275 278 279 273 267 260 256 255 251 247 245 243 243 242 240 238 236 232 231 231 231 229 228 221 217 214 211 210 212 209 210 217 226 237 255 278 296 304
278 280 280 282 281 280 281 280 279 272 261 256 254 251 247 244 241 240 238 237 235 232 231 230 229 227 226 226 223 221 216 215 214 215 215 217 224 230 250 267 284 292 299
281 283 283 285 286 288 286 283 278 275 268 258 254 250 247 244 241 239 237 235 233 232 230 228 226 224 224 224 220 219 218 219 220 222 224 223 228 235 249 260 274 283 294
290 289 286 285 287 289 291 288 281 275 268 261 256 251 247 243 239 237 235 232 231 229 227 226 225 222 223 226 220 217 215 217 219 220 221 226 235 244 247 258 274 286 294
299 302 302 300 299 298 293 287 284 276 269 262 256 249 243 240 239 238 235 233 230 228 225 221 219 221 220 226 222 217 218 218 219 220 223 229 239 252 251 261 267 276 287
312 314 309 304 305 306 305 299 288 279 276 266 258 252 245 242 241 238 235 232 229 224 221 219 218 219 225 221 215 214 218 219 223 225 229 234 245 258 261 270 280 286 291
311 310 306 305 305 302 298 295 290 284 274 267 261 254 244 238 236 236 236 230 226 223 221 216 217 219 216 219 224 216 218 220 224 229 230 235 246 257 267 280 291 294 295
305 307 307 304 306 307 300 292 288 283 277 269 264 252 242 237 237 235 233 231 227 224 219 219 213 214 217 217 219 221 217 221 224 228 231 240 248 255 274 282 285 291 293
304 305 303 301 299 298 297 294 285 280 275 266 256 245 236 234 232 233 232 232 228 224 222 215 217 217 214 214 220 217 218 226 227 230 234 239 250 262 272 279 284 289 294
299 298 299 299 297 296 293 289 285 277 268 259 249 239 232 231 231 229 230 229 229 230 231 228 224 214 214 218 220 221 221 226 228 235 238 245 252 262 269 274 279 286 294
297 296 298 297 295 291 289 286 279 268 259 250 241 235 233 228 226 226 225 228 230 231 227 233 231 224 222 218 216 222 227 228 224 229 240 249 256 261 264 270 279 287 294